Tracking 29489 objects as of 9-Sep-2024
HD Live streaming from Space Station
objects crossing your sky now

FENGYUN 1C DEB

Track FENGYUN 1C DEB now!
10-day predictions


NORAD ID: 31655
Int'l Code: 1999-025CBM
Perigee: 824.7 km
Apogee: 1,276.2 km
Inclination: 99.3 °
Period: 106.0 minutes
Semi major axis: 7421 km
RCS: 0.0098 m2 (small)
Launch date: May 10, 1999
Source: People's Republic of China (PRC)
Launch site: Taiyaun Space Center, China (TSC)

Note: This is SATELLITE DEBRIS
Your satellite tracking list
Your tracking list is empty




NASA's NSSDC Master Catalog

Two Line Element Set (TLE):
1 31655U 99025CBM 24251.64273007  .00008724  00000-0  89833-2 0  9992
2 31655  99.3001 213.1710 0304168 243.4694 296.2859 13.57901266534455
Source of the keplerian elements: AFSPC